Lid_Strength_Index
1 1 1 0 1 1 1 0 -0 -1 -0 -1 -0 -1 -1 -0 -0 -0 0 0 0 0
1 1 1 0 0 1 1 0 -0 -0 -0 -0 -0 -1 -0 -0 0 -0 -0 -0 -0 0
1 1 1 1 1 1 0 -0 -0 -0 -0 -0 -0 -0 -0 -0 0 -0 0 0 0 0
0 1 1 1 1 1 0 0 -0 -0 -0 -0 0 -0 0 -0 0 0 0 -0 0 0
1 1 1 0 1 0 0 0 1 -0 0 1 -0 -0 0 0 0 0 1 0 0 0
2 1 1 1 0 -0 -0 -0 0 0 0 0 0 0 -0 0 0 0 0 0 0 0
1 1 1 1 1 1 -0 0 1 1 1 1 1 -0 0 0 0 0 0 0 0 0
1 0 0 0 1 1 0 0 -0 0 1 1 1 1 0 0 0 0 1 0 0 -0
1 1 1 0 0 0 0 0 0 0 0 1 1 3 4 2 0 0 1 1 0 -0
2 1 1 1 1 1 1 0 1 0 0 1 0 5 5 4 1 0 0 0 1 1
3 3 3 3 3 2 1 1 1 1 1 0 0 6 6 5 2 1 1 0 0 0
5 5 4 4 4 4 3 2 2 1 1 1 1 7 6 5 1 1 1 1 1 0
6 6 6 5 5 5 4 3 1 1 1 3 1 5 7 4 1 1 1 0 0 4
7 7 7 6 6 6 6 6 6 5 5 5 5 6 9 8 2 3 2 2 2 1